[[{"header":{"parameterUnit":"m.s-1","parameterCategory":1,"la1":30.2991,"la2":30.254,"lo1":-89.0895,"lo2":-89.0444,"dy":0.0017,"dx":0.0017,"nx":28,"ny":28,"refTime":"2024-10-20T09:00:00:Z","depth":0,"parameterNumber":2,"parameterNumberName":"U-component_of_WINDS"},"data":[0,0,0,0,0,0,0,0,0,0,0,0,0,0,0,0,0,0,0,0,0,0,0,0,0,0,0,0,0,0,0,0,0,0,0,0,0,0,0,0,0,0,0,0,0,0,0,0,0,0,0,0,0,0,0,0,0,0,-0.0706,-0.0705,0,-0.0658,-0.0658,-0.0657,-0.0628,-0.0628,-0.0628,-0.0628,-0.0582,-0.0581,-0.058,0,0,0,0,0,0,0,0,0,0,0,0,0,-0.0775,-0.0773,-0.0706,-0.0705,-0.0705,-0.0659,-0.0658,-0.0657,-0.0628,-0.0628,-0.0628,-0.0628,-0.0582,-0.0581,-0.058,0,0,0,0,0,0,0,0,0,0,0,0,0,-0.0738,-0.0773,-0.0706,-0.0685,-0.0682,-0.0659,-0.0658,-0.0657,-0.0628,-0.0628,-0.0628,-0.0628,-0.0583,-0.0581,-0.058,-0.0574,0,0,-0.0575,-0.0574,0,0,0,0,0,0,0,0,-0.074,-0.0735,-0.0688,-0.0686,-0.0683,-0.0649,-0.0665,-0.063,-0.0628,-0.0649,-0.0628,-0.0627,-0.0605,-0.0601,-0.0593,-0.0572,-0.057,-0.0575,-0.0574,-0.0573,-0.0572,0,0,0,0,0,0,0,-0.0742,-0.0737,-0.0687,-0.0688,-0.0685,-0.0678,-0.0673,-0.0658,-0.0629,-0.0647,-0.0645,-0.0639,-0.0603,-0.0595,-0.0592,-0.057,-0.0575,-0.0573,-0.0572,-0.0572,-0.0544,-0.0544,0,0,0,0,0,0,-0.0748,-0.0739,-0.0689,-0.0686,-0.0711,-0.0677,-0.0671,-0.066,-0.0629,-0.0624,-0.064,-0.0638,-0.0597,-0.0594,-0.059,-0.0583,-0.0573,-0.0571,-0.057,-0.0544,-0.0544,-0.0544,0,0,0,0,0,0,-0.075,-0.0744,-0.0691,-0.0712,-0.0705,-0.0676,-0.0664,-0.0659,-0.0651,-0.0623,-0.0618,-0.0636,-0.0597,-0.0592,-0.0579,-0.0581,-0.0571,-0.0569,-0.0543,-0.0544,-0.0544,-0.0567,0,0,0,0,0,0,-0.0752,-0.0744,-0.0741,-0.0712,-0.0704,-0.0679,-0.0664,-0.0659,-0.0648,-0.0645,-0.0618,-0.0614,-0.0597,-0.0581,-0.0577,-0.0578,-0.0568,-0.0543,-0.0543,-0.0544,-0.0566,-0.0569,-0.057,0,0,0,0,0,-0.0754,-0.075,-0.0741,-0.0735,-0.0699,-0.0679,-0.0675,-0.0654,-0.0648,-0.0645,-0.0628,-0.0615,-0.0581,-0.058,-0.0575,-0.0576,-0.0543,-0.0543,-0.0544,-0.0566,-0.0568,-0.057,0,0,0,0,0,0,-0.0781,-0.0746,-0.0736,-0.0722,-0.0704,-0.0674,-0.067,-0.0657,-0.0641,-0.064,-0.0616,-0.061,-0.0599,-0.0586,-0.0586,-0.057,-0.056,-0.056,-0.0579,-0.0581,-0.0583,-0.0587,-0.0567,0,0,0,0,0,-0.0786,-0.0771,-0.0742,-0.0733,-0.0724,-0.0699,-0.0689,-0.0675,-0.0656,-0.0648,-0.0629,-0.0612,-0.0597,-0.0588,-0.0573,-0.0564,-0.0559,-0.0562,-0.0565,-0.0566,-0.0566,-0.0562,-0.0563,-0.0546,-0.0546,-0.0546,0,0,-0.0794,-0.0773,-0.0766,-0.0738,-0.0722,-0.0709,-0.0692,-0.0679,-0.067,-0.0646,-0.0632,-0.0618,-0.0597,-0.0586,-0.058,-0.0575,-0.057,-0.0567,-0.0569,-0.0568,-0.0562,-0.0564,-0.0566,-0.0546,-0.0546,-0.0546,0,0,-0.0804,-0.0786,-0.0777,-0.0762,-0.0738,-0.0721,-0.0719,-0.0691,-0.0681,-0.0666,-0.0649,-0.0638,-0.0613,-0.0599,-0.0589,-0.0594,-0.0582,-0.059,-0.06,-0.0596,-0.0597,-0.0599,-0.0601,-0.0603,-0.059,-0.059,-0.059,0,-0.0818,-0.0797,-0.0774,-0.0762,-0.0751,-0.0728,-0.0719,-0.0706,-0.0679,-0.0672,-0.0666,-0.0635,-0.0619,-0.0605,-0.0606,-0.0598,-0.0596,-0.0593,-0.0599,-0.06,-0.0601,-0.0603,-0.0604,-0.0591,-0.0591,-0.0591,-0.0591,0,-0.0816,-0.0802,-0.0798,-0.0771,-0.0759,-0.0749,-0.0726,-0.0717,-0.0704,-0.0688,-0.0674,-0.0654,-0.0635,-0.0631,-0.0618,-0.0615,-0.0613,-0.0603,-0.0594,-0.0604,-0.0606,-0.0607,-0.0593,-0.0592,-0.0592,-0.0592,0,0,-0.0842,-0.0803,-0.0802,-0.079,-0.0762,-0.0751,-0.0741,-0.0721,-0.0715,-0.0697,-0.0688,-0.0668,-0.0659,-0.0647,-0.0633,-0.0629,-0.0636,-0.062,-0.0619,-0.0625,-0.0633,-0.0641,-0.0642,-0.0627,-0.0627,-0.0627,-0.0635,0,-0.0848,-0.0826,-0.0806,-0.0792,-0.0779,-0.0758,-0.0749,-0.0732,-0.0717,-0.0705,-0.0689,-0.0675,-0.0664,-0.0657,-0.0652,-0.0636,-0.0637,-0.0635,-0.062,-0.062,-0.0627,-0.0643,-0.0651,-0.0658,-0.0635,-0.0635,-0.0635,0,-0.0852,-0.0834,-0.0819,-0.0794,-0.0788,-0.078,-0.0761,-0.0749,-0.073,-0.0719,-0.0707,-0.0691,-0.068,-0.0672,-0.0657,-0.0656,-0.0649,-0.064,-0.0639,-0.0638,-0.0629,-0.0642,-0.066,-0.0662,-0.0636,-0.0636,-0.0636,0,-0.0873,-0.0846,-0.0833,-0.0824,-0.0793,-0.0789,-0.0776,-0.0756,-0.0746,-0.073,-0.0724,-0.0707,-0.0698,-0.0686,-0.0667,-0.0662,-0.0655,-0.0644,-0.0647,-0.0647,-0.0647,-0.0647,-0.0665,-0.0641,-0.0641,-0.0641,-0.0641,0,-0.0882,-0.0874,-0.0842,-0.0835,-0.0826,-0.0803,-0.0795,-0.078,-0.0763,-0.0753,-0.0734,-0.0726,-0.0701,-0.069,-0.0675,-0.0666,-0.0662,-0.0654,-0.065,-0.0656,-0.0657,-0.0652,-0.0651,-0.0641,-0.0641,-0.0641,-0.0641,0,-0.0904,-0.0882,-0.0868,-0.084,-0.0833,-0.0828,-0.0805,-0.0797,-0.0782,-0.077,-0.0766,-0.0742,-0.0728,-0.0707,-0.0688,-0.0678,-0.0671,-0.0665,-0.0677,-0.0675,-0.068,-0.068,-0.0695,-0.0696,-0.0671,-0.0671,-0.0671,0,-0.0911,-0.0905,-0.0876,-0.0868,-0.0856,-0.0843,-0.0833,-0.081,-0.0801,-0.0778,-0.0774,-0.0758,-0.0745,-0.0724,-0.0705,-0.069,-0.0684,-0.069,-0.0682,-0.0688,-0.0685,-0.0686,-0.0686,-0.0693,-0.0693,-0.0693,-0.0693,0,-0.0928,-0.0917,-0.0903,-0.0885,-0.0873,-0.0858,-0.0843,-0.0837,-0.0812,-0.0802,-0.0787,-0.0777,-0.0756,-0.0742,-0.0724,-0.0712,-0.0699,-0.0696,-0.0696,-0.0702,-0.0711,-0.0707,-0.0684,-0.0696,-0.0696,-0.0696,-0.0695,-0.0695,-0.0943,-0.0936,-0.0916,-0.0901,-0.0886,-0.0872,-0.0864,-0.0848,-0.0835,-0.0816,-0.0804,-0.079,-0.0772,-0.0747,-0.0736,-0.0725,-0.072,-0.072,-0.072,-0.072,-0.0723,-0.0712,-0.0722,-0.0722,-0.0722,-0.0722,-0.0722,0,-0.0959,-0.0945,-0.0931,-0.0909,-0.0898,-0.0886,-0.0868,-0.0859,-0.0847,-0.0831,-0.0818,-0.0802,-0.0787,-0.0768,-0.0753,-0.0748,-0.0742,-0.0745,-0.0746,-0.0743,-0.0728,-0.073,-0.0751,-0.0751,-0.0751,-0.0751,-0.0751,-0.0751,-0.0966,-0.0954,-0.0942,-0.0924,-0.091,-0.0896,-0.0887,-0.0874,-0.0861,-0.0844,-0.0832,-0.0819,-0.0801,-0.0785,-0.0772,-0.0767,-0.0762,-0.0768,-0.0761,-0.0747,-0.0744,-0.0742,-0.0744,-0.0767,-0.0767,-0.0777,-0.0777,-0.0777]},{"header":{"parameterUnit":"m.s-1","parameterCategory":1,"la1":30.2991,"la2":30.254,"lo1":-89.0895,"lo2":-89.0444,"dy":0.0017,"dx":0.0017,"nx":28,"ny":28,"refTime":"2024-10-20T09:00:00:Z","depth":0,"parameterNumber":3,"parameterNumberName":"V-component_of_WINDS"},"data":[0,0,0,0,0,0,0,0,0,0,0,0,0,0,0,0,0,0,0,0,0,0,0,0,0,0,0,0,0,0,0,0,0,0,0,0,0,0,0,0,0,0,0,0,0,0,0,0,0,0,0,0,0,0,0,0,0,0,0.6652,0.665,0,0.6525,0.6523,0.6522,0.6459,0.6459,0.6459,0.6459,0.6322,0.6319,0.6315,0,0,0,0,0,0,0,0,0,0,0,0,0,0.6834,0.6831,0.6652,0.665,0.6649,0.6525,0.6523,0.6521,0.6459,0.6459,0.6459,0.6459,0.6324,0.6319,0.6315,0,0,0,0,0,0,0,0,0,0,0,0,0,0.6736,0.683,0.6652,0.6603,0.6597,0.6525,0.6523,0.6521,0.6459,0.6459,0.6459,0.6459,0.6325,0.632,0.6314,0.628,0,0,0.6298,0.6295,0,0,0,0,0,0,0,0,0.6741,0.6729,0.6612,0.6606,0.6599,0.6508,0.6537,0.644,0.6459,0.6511,0.6459,0.6459,0.6384,0.6373,0.6349,0.6274,0.6268,0.6297,0.6294,0.6292,0.629,0,0,0,0,0,0,0,0.6748,0.6734,0.6601,0.661,0.6602,0.6585,0.6571,0.6519,0.6449,0.6506,0.6502,0.6488,0.638,0.6355,0.6346,0.6266,0.6297,0.6293,0.6289,0.6287,0.6154,0.6154,0,0,0,0,0,0,0.6764,0.674,0.6605,0.6597,0.6672,0.6581,0.6566,0.6537,0.6449,0.6436,0.6488,0.6485,0.6364,0.6352,0.6341,0.6294,0.6292,0.6287,0.6283,0.6154,0.6154,0.6154,0,0,0,0,0,0,0.6768,0.6753,0.661,0.6667,0.6648,0.6578,0.6546,0.6534,0.6509,0.6435,0.6422,0.6475,0.6364,0.6348,0.6296,0.6288,0.6284,0.6279,0.6155,0.6154,0.6154,0.62,0,0,0,0,0,0,0.6774,0.6754,0.6742,0.6668,0.6645,0.657,0.6546,0.6532,0.65,0.6496,0.6419,0.6407,0.6362,0.6304,0.629,0.628,0.6275,0.6155,0.6154,0.6154,0.6199,0.6202,0.6204,0,0,0,0,0,0.678,0.676,0.6742,0.6726,0.6629,0.657,0.6557,0.6508,0.65,0.6486,0.6438,0.6409,0.6291,0.6299,0.6283,0.6272,0.6155,0.6154,0.6154,0.6198,0.6201,0.6204,0,0,0,0,0,0,0.6833,0.6749,0.6729,0.6684,0.6635,0.6559,0.654,0.6513,0.6463,0.6461,0.64,0.6384,0.6336,0.6298,0.6309,0.6233,0.622,0.6216,0.6259,0.6262,0.6264,0.6273,0.627,0,0,0,0,0,0.684,0.6801,0.6728,0.6696,0.6672,0.6611,0.6583,0.655,0.6496,0.6474,0.6422,0.6369,0.632,0.6289,0.6239,0.6194,0.6175,0.6177,0.618,0.6182,0.6179,0.615,0.615,0.6152,0.6152,0.6152,0,0,0.6853,0.6802,0.6781,0.6705,0.6663,0.6622,0.6594,0.6551,0.6519,0.6467,0.6414,0.6375,0.6311,0.6261,0.6237,0.6228,0.6174,0.6181,0.6183,0.6179,0.6149,0.6149,0.6149,0.6151,0.6151,0.6151,0,0,0.6856,0.6814,0.6781,0.674,0.6677,0.6637,0.6629,0.6557,0.653,0.6476,0.6436,0.6396,0.6313,0.6269,0.6235,0.622,0.6191,0.6206,0.6217,0.619,0.6189,0.6189,0.6182,0.6181,0.6203,0.6203,0.6203,0,0.6879,0.6817,0.6768,0.6727,0.6694,0.6647,0.6612,0.6574,0.6497,0.6474,0.6467,0.6361,0.6315,0.6253,0.625,0.6225,0.6212,0.6214,0.6194,0.6193,0.6192,0.6184,0.6182,0.6205,0.6205,0.6205,0.6205,0,0.6848,0.6806,0.6786,0.6716,0.668,0.6643,0.6586,0.6556,0.6525,0.6485,0.643,0.6373,0.6311,0.6294,0.6263,0.6227,0.6224,0.6206,0.6192,0.6195,0.6186,0.6183,0.6209,0.6208,0.6207,0.6207,0,0,0.688,0.6783,0.6776,0.6743,0.667,0.6635,0.6595,0.6536,0.651,0.6459,0.6422,0.6353,0.6335,0.6297,0.6261,0.6237,0.6227,0.6222,0.6219,0.6224,0.6182,0.6196,0.6193,0.6207,0.6207,0.6206,0.6187,0,0.6871,0.6799,0.6753,0.6698,0.6657,0.661,0.6575,0.6525,0.6486,0.6443,0.6399,0.635,0.6332,0.6308,0.6283,0.6234,0.6218,0.6235,0.617,0.6169,0.6187,0.6189,0.6204,0.6189,0.6184,0.6183,0.6183,0,0.6852,0.6803,0.6745,0.6675,0.6656,0.6625,0.6567,0.6527,0.6469,0.6442,0.64,0.6363,0.6316,0.6307,0.624,0.6253,0.6223,0.6195,0.6193,0.6184,0.6175,0.6179,0.6183,0.618,0.6178,0.6178,0.6178,0,0.6879,0.6799,0.6753,0.6726,0.6645,0.6624,0.6588,0.653,0.6497,0.6445,0.6423,0.6366,0.6334,0.6289,0.6237,0.6236,0.6175,0.6161,0.6149,0.615,0.6138,0.6139,0.6135,0.6121,0.6121,0.6121,0.6121,0,0.6874,0.6839,0.6765,0.6736,0.6696,0.6642,0.6602,0.6563,0.6511,0.6473,0.6429,0.6393,0.6328,0.6283,0.6242,0.6192,0.6178,0.6153,0.6142,0.6156,0.6159,0.6135,0.6135,0.612,0.612,0.6121,0.6121,0,0.6897,0.6846,0.6793,0.672,0.6701,0.6674,0.6611,0.658,0.6539,0.6491,0.6476,0.641,0.6355,0.6299,0.6225,0.6197,0.6148,0.6134,0.6168,0.6162,0.6152,0.6154,0.6132,0.6126,0.6117,0.6118,0.6118,0,0.6897,0.6869,0.6794,0.6766,0.6732,0.6687,0.6654,0.6599,0.6565,0.6497,0.6474,0.6417,0.6368,0.6282,0.6226,0.6168,0.6152,0.6148,0.6143,0.6157,0.615,0.6152,0.6148,0.615,0.615,0.6151,0.6151,0,0.69,0.6876,0.6831,0.6776,0.6737,0.6691,0.6643,0.6622,0.6558,0.6522,0.6466,0.6429,0.6353,0.6296,0.6232,0.6192,0.616,0.6153,0.6147,0.6161,0.6181,0.6169,0.6173,0.6154,0.6153,0.6153,0.6153,0.6153,0.691,0.6884,0.6826,0.6776,0.6735,0.6691,0.6658,0.6613,0.6567,0.6502,0.6472,0.6417,0.6357,0.6268,0.6229,0.6183,0.6174,0.6165,0.6163,0.6161,0.6164,0.619,0.6171,0.6171,0.6171,0.6171,0.617,0,0.6911,0.6872,0.6826,0.6761,0.6721,0.6697,0.6642,0.661,0.6562,0.651,0.6463,0.6398,0.6342,0.6282,0.6222,0.6197,0.618,0.6183,0.6183,0.6174,0.6176,0.6187,0.6197,0.6197,0.6197,0.6197,0.6197,0.6197,0.6906,0.6859,0.6828,0.6759,0.6719,0.6665,0.6636,0.6594,0.6553,0.6483,0.6437,0.6399,0.6343,0.6279,0.6225,0.6209,0.6188,0.6195,0.6174,0.6176,0.6174,0.6173,0.6182,0.6191,0.6191,0.6175,0.6175,0.6175]}]]